TimeCST,TemperatureF,Dew PointF,Humidity,Sea Level PressureIn,VisibilityMPH,Wind Direction,Wind SpeedMPH,Gust SpeedMPH,PrecipitationIn,Events,Conditions,WindDirDegrees,DateUTC
12:56 AM,27.1,-9999,N/A,29.86,10.0,Calm,Calm,-,N/A,,Clear,0,2013-11-15 06:56:00
1:56 AM,25.2,-9999,N/A,29.87,10.0,Calm,Calm,-,N/A,,Clear,0,2013-11-15 07:56:00
2:56 AM,24.1,-9999,N/A,29.87,10.0,Calm,Calm,-,N/A,,Clear,0,2013-11-15 08:56:00
3:56 AM,24.1,-9999,N/A,29.87,10.0,Calm,Calm,-,N/A,,Clear,0,2013-11-15 09:56:00
4:56 AM,23.0,-9999,N/A,29.88,10.0,Calm,Calm,-,N/A,,Clear,0,2013-11-15 10:56:00
5:56 AM,22.1,-9999,N/A,29.88,10.0,Calm,Calm,-,N/A,,Clear,0,2013-11-15 11:56:00
6:56 AM,21.0,-9999,N/A,29.89,10.0,Calm,Calm,-,N/A,,Clear,0,2013-11-15 12:56:00
7:56 AM,27.1,-9999,N/A,29.91,10.0,Calm,Calm,-,N/A,,Clear,0,2013-11-15 13:56:00
8:56 AM,36.9,-9999,N/A,29.91,10.0,SW,3.5,-,N/A,,Clear,220,2013-11-15 14:56:00
9:56 AM,41.9,-9999,N/A,29.91,10.0,SSW,4.6,-,N/A,,Clear,200,2013-11-15 15:56:00
10:39 AM,46.4,-9999,N/A,29.90,10.0,Calm,Calm,-,N/A,,Partly Cloudy,0,2013-11-15 16:39:00
10:56 AM,46.9,-9999,N/A,29.91,10.0,South,5.8,-,N/A,,Clear,190,2013-11-15 16:56:00
11:49 AM,50.0,-9999,N/A,29.89,10.0,SW,5.8,-,N/A,,Partly Cloudy,230,2013-11-15 17:49:00
11:56 AM,50.9,-9999,N/A,29.90,10.0,Variable,6.9,-,N/A,,Partly Cloudy,0,2013-11-15 17:56:00
12:56 PM,52.9,-9999,N/A,29.87,10.0,WSW,8.1,-,N/A,,Mostly Cloudy,240,2013-11-15 18:56:00
1:56 PM,54.0,-9999,N/A,29.86,10.0,SSW,8.1,-,N/A,,Mostly Cloudy,210,2013-11-15 19:56:00
2:56 PM,54.0,-9999,N/A,29.86,10.0,SW,6.9,-,N/A,,Overcast,220,2013-11-15 20:56:00
3:56 PM,50.9,-9999,N/A,29.87,10.0,SSW,4.6,-,N/A,,Mostly Cloudy,200,2013-11-15 21:56:00
4:41 PM,42.8,-9999,N/A,29.86,10.0,Calm,Calm,-,N/A,,Scattered Clouds,0,2013-11-15 22:41:00
4:56 PM,41.9,-9999,N/A,29.88,10.0,Calm,Calm,-,N/A,,Partly Cloudy,0,2013-11-15 22:56:00
5:56 PM,34.9,-9999,N/A,29.89,10.0,Calm,Calm,-,N/A,,Clear,0,2013-11-15 23:56:00
6:56 PM,32.9,-9999,N/A,29.89,10.0,Calm,Calm,-,N/A,,Clear,0,2013-11-16 00:56:00
7:56 PM,37.9,-9999,N/A,29.87,10.0,SE,4.6,-,N/A,,Clear,140,2013-11-16 01:56:00
8:56 PM,38.8,-9999,N/A,29.88,10.0,SSE,4.6,-,N/A,,Clear,160,2013-11-16 02:56:00
9:56 PM,34.0,-9999,N/A,29.87,10.0,SSE,4.6,-,N/A,,Clear,150,2013-11-16 03:56:00
10:56 PM,36.9,-9999,N/A,29.87,10.0,Calm,Calm,-,N/A,,Clear,0,2013-11-16 04:56:00
11:56 PM,32.0,-9999,N/A,29.86,10.0,SSE,4.6,-,N/A,,Clear,160,2013-11-16 05:56:00